ATLAS 5 CENTAUR DEB, 43994

Orbit data source: Space-Track

ATLAS 5 CENTAUR DEB, 43994 is space debris in HEO originally from a launch on Wed, 17 Sep 2014 UTC launched from the Air Force Eastern Test Range (AFETR). Debris objects in space refer to the collection of defunct objects orbiting the Earth. Examples of debris include non-operational satellites, rocket bodies, and fragments generated from explosions, collisions, or faulty payload assembly.

Loading next visibility...
Identifier
43994, 2014-055AZ
Orbit
HEO
Country
Flag of USUS
Related business
Flag of USUnited Launch Alliance/Lockheed Martin (US)
Manufacturer
Unknown
Mission
Spacecraft
Bus & Motor
Unknown
Mass
Unknown
Launch date (UTC)
2014-09-17 (11 years ago)
Launch vehicle
Unknown
Launch site
Air Force Eastern Test Range (AFETR)
Object type
Payload
Rocket body
Debris
Shape & HBR
Unknown shape, 1.1 m
Radar Cross Section
RCS unknown

Expand to show TLE details & history
Last TLE update: 6 months ago

TLE from 6 months ago
0 ATLAS 5 CENTAUR DEB
1 43994U 14055AZ  25150.29571655 -.00000066  00000-0  00000-0 0  9990
2 43994  19.7034 214.0457 4614044  45.8867 343.9806  1.80951637 43896
Epoch: 2025-05-30T07:05Z
TLE epoch observation values (Epoch: 2025-05-30T07:05:49.909Z)
Latitude
-0°
Longitude
-140.39216°
Altitude
10,535.118 km
Speed
5.755 km/s
True Right ascension
14h 16m 28s
True Declination
0° 00' 00"
Sunlit
Object was in daylight at epoch
Visualization orbit readout
Latitude
Unknown
Longitude
Unknown
Altitude
Unknown
Speed
Unknown
Apparent Right ascension
Unknown
Apparent Declination
Unknown
Sunlit
N/A
Visualization observer readout
Local Sidereal Time
11:43:23
Azimuth
Unknown
Elevation
Unknown
Doppler factor
Unknown
Orbital elements
Apogee altitude
35,196.224 km
Perigee altitude
8,943.952 km
Semi-major axis
28,448.225 km
Eccentricity
0.4614
Inclination
19.7034°
RAAN
214.0457°
Arg. of periapsis
45.8867°
True anomaly
314.2613°
Mean anomaly
343.9806°
Eccentric anomaly
331.27507°
Mean motion
0.45234 °/min
Orbital period
795.87 mins
BSTAR
0
Loading maneuver chart data...
Computing Atmospheric mass density...

Documentation

Showing up to 5 results
|